Lihue, HI

4:39 PM HST on August 16, 2017 (GMT -1000)
Lihue

Weather History for PHLI - June, 2012

Change the Weather History Date:

Thursday, June 21, 2012

  Actual Average Record
Temperature  
Mean Temperature 79 °F 79 °F  
Max Temperature 83 °F 84 °F 88 °F (1981)
Min Temperature 75 °F 73 °F 65 °F (1978)
Degree Days  
Heating Degree Days 0 0  
Month to date heating degree days 0 0  
Since 1 June heating degree days 0 0  
Since 1 July heating degree days 0 0  
Cooling Degree Days 14 13  
Month to date cooling degree days 273 269  
Year to date cooling degree days 1679 1508  
Since 1 June cooling degree days 273 269  
Growing Degree Days 29 (Base 50)    
Moisture  
Dew Point 65 °F    
Average Humidity 65    
Maximum Humidity 74    
Minimum Humidity 55    
Precipitation  
Precipitation 0.00 in 0.05 in 0.80 in (1978)
Month to date precipitation 0.16 1.10  
Year to date precipitation 32.93 16.94  
Snow  
Snow 0.00 in - - ()
Month to date snowfall 0.0  
Since 1 June snowfall 0.0  
Since 1 July snowfall 0.0  
Snow Depth 0.00 in    
Sea Level Pressure  
Sea Level Pressure 30.06 in    
Wind  
Wind Speed 14 mph (ENE)    
Max Wind Speed 17 mph    
Max Gust Speed 21 mph    
Visibility 10 miles    
Events      
T = Trace of Precipitation, MM = Missing Value Source: NWS Daily Summary

Daily Weather History Graph

Daily Weather History Graph

Search for Another Location

Airport or City:

Trip Planner

Search our weather history database for the weather conditions in past years. The results will help you decide how hot, cold, wet, or windy it might be!

Date:

Astronomy

Jun. 21, 2012 Rise Set
Actual Time 5:54 AM HST 7:23 PM HST
Civil Twilight 5:29 AM HST 7:48 PM HST
Nautical Twilight 5:00 AM HST 8:18 PM HST
Astronomical Twilight 4:29 AM HST 8:49 PM HST
Moon 7:51 AM HST (6/21) 9:11 PM HST (6/21)
Length of Visible Light 14h 18m
Length of Day
13h 28m
Waxing Crescent, 5% of the Moon is Illuminated
Jun 21
Waxing Crescent
Jun 26
First Quarter
Jul 3
Full
Jul 10
Last Quarter
Jul 18
New

Hourly Weather History & Observations

Time (HST) Temp. Heat Index Dew Point Humidity Pressure Visibility Wind Dir Wind Speed Gust Speed Precip Events Conditions
12:53 AM 75.0 °F - 64.9 °F 71% 30.06 in 10.0 mi ENE 11.5 mph - N/A   Overcast
1:53 AM 75.0 °F - 66.9 °F 76% 30.04 in 10.0 mi ENE 12.7 mph - N/A   Overcast
2:04 AM 75.2 °F - 64.4 °F 69% 30.05 in 10.0 mi ENE 13.8 mph - N/A   Overcast
2:17 AM 75.2 °F - 64.4 °F 69% 30.05 in 10.0 mi ENE 15.0 mph - N/A   Overcast
2:24 AM 75.2 °F - 66.2 °F 73% 30.05 in 10.0 mi ENE 15.0 mph - N/A   Overcast
2:53 AM 75.0 °F - 64.9 °F 71% 30.04 in 10.0 mi ENE 13.8 mph - N/A   Overcast
3:53 AM 75.0 °F - 64.9 °F 71% 30.03 in 10.0 mi ENE 12.7 mph - N/A   Overcast
4:53 AM 75.0 °F - 66.0 °F 73% 30.04 in 10.0 mi ENE 13.8 mph - N/A   Overcast
5:04 AM 75.2 °F - 66.2 °F 73% 30.05 in 10.0 mi ENE 12.7 mph - N/A   Overcast
5:13 AM 75.2 °F - 66.2 °F 73% 30.05 in 10.0 mi ENE 12.7 mph - N/A   Overcast
5:53 AM 75.0 °F - 66.0 °F 73% 30.05 in 10.0 mi ENE 13.8 mph - N/A   Overcast
6:53 AM 75.9 °F - 66.0 °F 71% 30.06 in 10.0 mi ENE 13.8 mph - N/A   Mostly Cloudy
7:53 AM 78.1 °F - 64.9 °F 64% 30.07 in 10.0 mi ENE 13.8 mph - N/A   Mostly Cloudy
8:53 AM 79.0 °F - 64.9 °F 62% 30.08 in 10.0 mi ENE 15.0 mph - N/A   Clear
9:53 AM 81.0 °F 82.7 °F 64.9 °F 58% 30.09 in 10.0 mi ENE 13.8 mph - N/A   Scattered Clouds
10:53 AM 82.0 °F 83.8 °F 64.9 °F 56% 30.08 in 10.0 mi ENE 13.8 mph - N/A   Partly Cloudy
11:53 AM 82.0 °F 83.8 °F 64.9 °F 56% 30.08 in 10.0 mi NE 13.8 mph - N/A   Partly Cloudy
12:53 PM 82.0 °F 84.1 °F 66.0 °F 58% 30.07 in 10.0 mi NE 16.1 mph - N/A   Scattered Clouds
1:53 PM 82.9 °F 85.0 °F 66.0 °F 56% 30.06 in 10.0 mi ENE 12.7 mph - N/A   Partly Cloudy
2:53 PM 80.1 °F 82.1 °F 66.0 °F 62% 30.05 in 10.0 mi ENE 15.0 mph - N/A   Scattered Clouds
3:42 PM 78.8 °F - 66.2 °F 65% 30.05 in 10.0 mi ENE 12.7 mph - N/A   Mostly Cloudy
3:53 PM 79.0 °F - 64.9 °F 62% 30.04 in 10.0 mi ENE 13.8 mph - N/A   Overcast
4:05 PM 78.8 °F - 66.2 °F 65% 30.05 in 10.0 mi NE 11.5 mph - N/A   Overcast
4:53 PM 78.1 °F - 64.0 °F 62% 30.04 in 10.0 mi ENE 12.7 mph - N/A   Mostly Cloudy
5:53 PM 77.0 °F - 66.0 °F 69% 30.04 in 10.0 mi ENE 12.7 mph - N/A   Mostly Cloudy
6:53 PM 75.9 °F - 64.9 °F 69% 30.05 in 10.0 mi ENE 13.8 mph - N/A   Overcast
7:53 PM 75.9 °F - 64.9 °F 69% 30.07 in 10.0 mi ENE 13.8 mph - N/A   Overcast
8:53 PM 75.0 °F - 64.9 °F 71% 30.09 in 10.0 mi ENE 10.4 mph - N/A   Mostly Cloudy
9:35 PM 75.2 °F - 66.2 °F 73% 30.10 in 10.0 mi NE 11.5 mph - N/A   Mostly Cloudy
9:53 PM 75.0 °F - 66.0 °F 73% 30.09 in 10.0 mi ENE 12.7 mph - N/A   Mostly Cloudy
10:02 PM 75.2 °F - 66.2 °F 73% 30.10 in 10.0 mi ENE 11.5 mph - N/A   Scattered Clouds
10:53 PM 75.0 °F - 66.0 °F 73% 30.10 in 10.0 mi ENE 12.7 mph - N/A   Mostly Cloudy
11:19 PM 75.2 °F - 66.2 °F 73% 30.11 in 10.0 mi ENE 10.4 mph - N/A   Mostly Cloudy
11:53 PM 75.0 °F - 66.0 °F 73% 30.10 in 10.0 mi NE 11.5 mph - N/A   Partly Cloudy